Location: Allens Landing
(37.8284°N, 89.7284°W)
Time: 17:13:11
(UTC+00:00)

S-56A Canister/Altair - Visible Passes

Search period start: 18 January 2026 00:00
Search period end: 28 January 2026 00:00
Orbit: 632 x 2485 km, 38.9° (Epoch: 17 January)

Date Brightness Start Highest point End Pass type
(mag) Time Alt. Az. Time Alt. Az. Time Alt. Az.
18 Jan 11.5 12:13:45 10° SSW 12:26:09 36° SE 12:38:40 10° E visible
19 Jan 11.5 11:39:06 10° S 11:50:39 32° SE 12:02:43 10° E visible
20 Jan 11.6 11:04:40 10° S 11:15:13 27° SE 11:26:33 10° E visible
21 Jan 11.5 10:30:31 10° S 10:39:51 23° SE 10:50:06 10° E visible
21 Jan 10.7 12:30:45 10° SW 12:44:25 57° SSE 12:58:32 10° ENE visible
22 Jan 11.5 09:56:44 10° SSE 10:04:36 18° SE 10:13:17 10° E visible
22 Jan 10.7 11:55:43 10° SW 12:08:44 52° SE 12:22:49 10° ENE visible
23 Jan 11.5 09:23:35 10° SSE 09:29:27 14° SE 09:35:49 10° E visible
23 Jan 10.8 11:20:50 10° SSW 11:33:07 46° SE 11:46:58 10° ENE visible
24 Jan 11.7 08:52:33 10° SE 08:54:22 10° ESE 08:56:15 10° ESE visible
24 Jan 10.8 10:46:07 10° SSW 10:57:36 41° SE 11:11:00 10° ENE visible
25 Jan 10.9 10:11:35 10° SSW 10:22:11 36° SE 10:34:52 10° ENE visible
25 Jan 10.3 12:13:50 10° SW 12:27:20 73° SSE 12:42:15 10° ENE visible
26 Jan 10.9 09:39:07 16° S 09:46:53 30° SE 09:58:33 10° E visible
26 Jan 10.2 11:38:43 10° SW 11:51:33 68° SSE 12:06:29 10° ENE visible
27 Jan 10.8 09:07:06 20° SSE 09:11:42 25° SE 09:22:03 10° E visible
27 Jan 10.2 11:04:26 13° SW 11:15:51 63° SSE 11:30:37 10° ENE visible
